Time,TemperatureF,DewpointF,PressureIn,WindDirection,WindDirectionDegrees,WindSpeedMPH,WindSpeedGustMPH,Humidity,HourlyPrecipIn,Conditions,Clouds,dailyrainin,SoftwareType,DateUTC
2013-01-24 00:02:00,-20.1,-24.8,31.25,NNW,331,2.0,4.0,78,0.00,,---,0.00,VWS V13.01,2013-01-24 06:02:00,
2013-01-24 00:07:00,-20.1,-24.8,31.25,WNW,299,1.0,6.0,78,0.00,,---,0.00,VWS V13.01,2013-01-24 06:07:00,
2013-01-24 00:13:00,-20.2,-24.9,31.25,WNW,299,0.0,6.0,78,0.00,,---,0.00,VWS V13.01,2013-01-24 06:13:00,
2013-01-24 00:18:00,-20.3,-25.0,31.25,WNW,287,3.0,4.0,78,0.00,,---,0.00,VWS V13.01,2013-01-24 06:18:00,
2013-01-24 00:23:00,-20.5,-25.2,31.25,WNW,287,2.0,4.0,78,0.00,,---,0.00,VWS V13.01,2013-01-24 06:23:00,
2013-01-24 00:28:00,-20.8,-25.5,31.25,WNW,288,1.0,5.0,78,0.00,,---,0.00,VWS V13.01,2013-01-24 06:28:00,
2013-01-24 00:33:00,-20.9,-25.6,31.26,WNW,289,2.0,4.0,78,0.00,,---,0.00,VWS V13.01,2013-01-24 06:33:00,
2013-01-24 00:38:00,-21.0,-25.7,31.26,WNW,291,2.0,6.0,78,0.00,,---,0.00,VWS V13.01,2013-01-24 06:38:00,
2013-01-24 00:44:00,-21.2,-25.9,31.26,WNW,289,1.0,6.0,78,0.00,,---,0.00,VWS V13.01,2013-01-24 06:44:00,
2013-01-24 00:49:00,-21.3,-26.0,31.27,WNW,288,0.0,4.0,78,0.00,,---,0.00,VWS V13.01,2013-01-24 06:49:00,
2013-01-24 00:54:00,-21.5,-26.2,31.27,WNW,291,2.0,5.0,78,0.00,,---,0.00,VWS V13.01,2013-01-24 06:54:00,
2013-01-24 00:59:00,-21.7,-26.4,31.27,WNW,291,1.0,5.0,78,0.00,,---,0.00,VWS V13.01,2013-01-24 06:59:00,
2013-01-24 01:05:00,-21.7,-26.4,31.29,WNW,286,1.0,5.0,78,0.00,,---,0.00,VWS V13.01,2013-01-24 07:05:00,
2013-01-24 01:10:00,-21.8,-26.5,31.29,WNW,289,2.0,6.0,78,0.00,,---,0.00,VWS V13.01,2013-01-24 07:10:00,
2013-01-24 01:15:00,-21.8,-26.5,31.29,WNW,290,0.0,6.0,78,0.00,,---,0.00,VWS V13.01,2013-01-24 07:15:00,
2013-01-24 01:20:00,-21.9,-26.6,31.29,NW,311,2.0,7.0,78,0.00,,---,0.00,VWS V13.01,2013-01-24 07:20:00,
2013-01-24 01:25:00,-22.0,-26.7,31.29,WNW,284,3.0,9.0,78,0.00,,---,0.00,VWS V13.01,2013-01-24 07:25:00,
2013-01-24 01:30:00,-21.9,-26.6,31.29,NW,313,1.0,9.0,78,0.00,,---,0.00,VWS V13.01,2013-01-24 07:30:00,
2013-01-24 01:35:00,-21.9,-26.6,31.29,WNW,288,3.0,5.0,78,0.00,,---,0.00,VWS V13.01,2013-01-24 07:35:00,
2013-01-24 01:40:00,-21.8,-26.5,31.29,WNW,293,6.0,6.0,78,0.00,,---,0.00,VWS V13.01,2013-01-24 07:40:00,
2013-01-24 01:45:00,-21.8,-26.5,31.29,WNW,295,3.0,6.0,78,0.00,,---,0.00,VWS V13.01,2013-01-24 07:45:00,
2013-01-24 01:50:00,-21.7,-26.4,31.29,NW,317,1.0,4.0,78,0.00,,---,0.00,VWS V13.01,2013-01-24 07:50:00,
2013-01-24 01:55:00,-21.8,-26.5,31.29,NW,319,1.0,5.0,78,0.00,,---,0.00,VWS V13.01,2013-01-24 07:55:00,
2013-01-24 02:01:00,-21.9,-26.6,31.29,NW,319,1.0,5.0,78,0.00,,---,0.00,VWS V13.01,2013-01-24 08:01:00,
2013-01-24 02:06:00,-21.9,-26.6,31.29,NW,321,0.0,5.0,78,0.00,,---,0.00,VWS V13.01,2013-01-24 08:06:00,
2013-01-24 02:11:00,-22.0,-26.7,31.29,NW,322,0.0,5.0,78,0.00,,---,0.00,VWS V13.01,2013-01-24 08:11:00,
2013-01-24 02:16:00,-22.2,-26.9,31.30,NW,322,0.0,5.0,78,0.00,,---,0.00,VWS V13.01,2013-01-24 08:16:00,
2013-01-24 02:21:00,-22.4,-27.1,31.30,NW,322,1.0,3.0,78,0.00,,---,0.00,VWS V13.01,2013-01-24 08:21:00,
2013-01-24 02:27:00,-22.5,-27.4,31.30,NW,322,1.0,4.0,77,0.00,,---,0.00,VWS V13.01,2013-01-24 08:27:00,
2013-01-24 02:32:00,-22.6,-27.5,31.32,NW,322,2.0,2.0,77,0.00,,---,0.00,VWS V13.01,2013-01-24 08:32:00,
2013-01-24 02:37:00,-22.8,-27.7,31.32,NW,322,1.0,4.0,77,0.00,,---,0.00,VWS V13.01,2013-01-24 08:37:00,
2013-01-24 02:42:00,-23.0,-27.9,31.32,NW,322,3.0,4.0,77,0.00,,---,0.00,VWS V13.01,2013-01-24 08:42:00,
2013-01-24 02:47:00,-23.0,-27.6,31.32,NW,322,0.0,1.0,78,0.00,,---,0.00,VWS V13.01,2013-01-24 08:47:00,
2013-01-24 02:52:00,-23.0,-27.6,31.32,NW,322,5.0,5.0,78,0.00,,---,0.00,VWS V13.01,2013-01-24 08:52:00,
2013-01-24 02:57:00,-22.9,-27.5,31.32,NW,323,1.0,5.0,78,0.00,,---,0.00,VWS V13.01,2013-01-24 08:57:00,
2013-01-24 03:02:00,-22.8,-27.5,31.32,NNW,347,2.0,4.0,78,0.00,,---,0.00,VWS V13.01,2013-01-24 09:02:00,
2013-01-24 03:07:00,-22.7,-27.4,31.32,NNW,344,0.0,5.0,78,0.00,,---,0.00,VWS V13.01,2013-01-24 09:07:00,
2013-01-24 03:12:00,-22.8,-27.5,31.32,NNW,344,0.0,5.0,78,0.00,,---,0.00,VWS V13.01,2013-01-24 09:12:00,
2013-01-24 03:17:00,-23.0,-27.9,31.32,NNW,344,0.0,0.0,77,0.00,,---,0.00,VWS V13.01,2013-01-24 09:17:00,
2013-01-24 03:22:00,-23.1,-28.0,31.32,NNW,344,0.0,0.0,77,0.00,,---,0.00,VWS V13.01,2013-01-24 09:22:00,
2013-01-24 03:27:00,-23.2,-28.1,31.32,NNW,344,1.0,3.0,77,0.00,,---,0.00,VWS V13.01,2013-01-24 09:27:00,
2013-01-24 03:32:00,-23.2,-27.8,31.32,NNW,344,1.0,1.0,78,0.00,,---,0.00,VWS V13.01,2013-01-24 09:32:00,
2013-01-24 03:37:00,-23.2,-27.8,31.32,NNW,344,0.0,3.0,78,0.00,,---,0.00,VWS V13.01,2013-01-24 09:37:00,
2013-01-24 03:42:00,-23.2,-27.8,31.32,NNW,344,0.0,3.0,78,0.00,,---,0.00,VWS V13.01,2013-01-24 09:42:00,
2013-01-24 03:47:00,-23.5,-28.4,31.33,NNW,344,0.0,0.0,77,0.00,,---,0.00,VWS V13.01,2013-01-24 09:47:00,
2013-01-24 03:53:00,-24.1,-29.2,31.33,NNW,344,0.0,0.0,76,0.00,,---,0.00,VWS V13.01,2013-01-24 09:53:00,
2013-01-24 03:58:00,-24.8,-30.1,31.33,NNW,344,0.0,0.0,75,0.00,,---,0.00,VWS V13.01,2013-01-24 09:58:00,
2013-01-24 04:03:00,-25.4,-30.7,31.35,NNW,344,0.0,0.0,75,0.00,,---,0.00,VWS V13.01,2013-01-24 10:03:00,
2013-01-24 04:08:00,-25.7,-30.8,31.35,NNW,344,0.0,1.0,76,0.00,,---,0.00,VWS V13.01,2013-01-24 10:08:00,
2013-01-24 04:13:00,-25.6,-30.4,31.35,NNW,344,0.0,1.0,77,0.00,,---,0.00,VWS V13.01,2013-01-24 10:13:00,
2013-01-24 04:18:00,-26.0,-31.3,31.38,NNW,344,0.0,0.0,75,0.00,,---,0.00,VWS V13.01,2013-01-24 10:18:00,
2013-01-24 04:24:00,-26.2,-31.2,31.38,NNW,344,0.0,0.0,76,0.00,,---,0.00,VWS V13.01,2013-01-24 10:24:00,
2013-01-24 04:29:00,-26.9,-32.4,31.38,NNW,344,0.0,1.0,74,0.00,,---,0.00,VWS V13.01,2013-01-24 10:29:00,
2013-01-24 04:34:00,-27.9,-33.6,31.38,NNW,344,0.0,0.0,73,0.00,,---,0.00,VWS V13.01,2013-01-24 10:34:00,
2013-01-24 04:39:00,-28.6,-34.0,31.38,NNW,344,0.0,0.0,74,0.00,,---,0.00,VWS V13.01,2013-01-24 10:39:00,
2013-01-24 04:44:00,-28.9,-34.3,31.38,NNW,344,0.0,0.0,74,0.00,,---,0.00,VWS V13.01,2013-01-24 10:44:00,
2013-01-24 04:49:00,-29.2,-34.6,31.41,NNW,344,0.0,0.0,74,0.00,,---,0.00,VWS V13.01,2013-01-24 10:49:00,
2013-01-24 04:54:00,-29.5,-34.7,31.41,NNW,344,0.0,0.0,75,0.00,,---,0.00,VWS V13.01,2013-01-24 10:54:00,
2013-01-24 05:00:00,-29.7,-34.9,31.41,NNW,344,0.0,0.0,75,0.00,,---,0.00,VWS V13.01,2013-01-24 11:00:00,
2013-01-24 05:05:00,-30.0,-35.4,31.41,NNW,344,0.0,0.0,74,0.00,,---,0.00,VWS V13.01,2013-01-24 11:05:00,
2013-01-24 05:10:00,-30.4,-35.8,31.41,NNW,344,0.0,1.0,74,0.00,,---,0.00,VWS V13.01,2013-01-24 11:10:00,
2013-01-24 05:15:00,-30.1,-35.3,31.41,NNW,344,0.0,1.0,75,0.00,,---,0.00,VWS V13.01,2013-01-24 11:15:00,
2013-01-24 05:20:00,-30.5,-35.9,31.41,NNW,344,0.0,0.0,74,0.00,,---,0.00,VWS V13.01,2013-01-24 11:20:00,
2013-01-24 05:26:00,-31.1,-36.7,31.41,NNW,344,0.0,0.0,73,0.00,,---,0.00,VWS V13.01,2013-01-24 11:26:00,
2013-01-24 05:31:00,-31.5,-36.9,31.44,NNW,344,0.0,0.0,74,0.00,,---,0.00,VWS V13.01,2013-01-24 11:31:00,
2013-01-24 05:36:00,-31.6,-37.0,31.44,NNW,344,0.0,1.0,74,0.00,,---,0.00,VWS V13.01,2013-01-24 11:36:00,
2013-01-24 05:42:00,-31.5,-36.9,31.44,NNW,344,0.0,1.0,74,0.00,,---,0.00,VWS V13.01,2013-01-24 11:42:00,
2013-01-24 05:47:00,-31.6,-37.0,31.44,NNW,344,0.0,0.0,74,0.00,,---,0.00,VWS V13.01,2013-01-24 11:47:00,
2013-01-24 05:52:00,-31.9,-37.2,31.44,NNW,344,0.0,0.0,74,0.00,,---,0.00,VWS V13.01,2013-01-24 11:52:00,
2013-01-24 05:57:00,-32.3,-37.9,31.44,NNW,344,0.0,1.0,73,0.00,,---,0.00,VWS V13.01,2013-01-24 11:57:00,
2013-01-24 06:02:00,-32.6,-38.2,31.46,NNW,344,0.0,0.0,73,0.00,,---,0.00,VWS V13.01,2013-01-24 12:02:00,
2013-01-24 06:07:00,-32.9,-38.5,31.46,NNW,344,0.0,0.0,73,0.00,,---,0.00,VWS V13.01,2013-01-24 12:07:00,
2013-01-24 06:13:00,-33.0,-38.6,31.46,NNW,344,0.0,0.0,73,0.00,,---,0.00,VWS V13.01,2013-01-24 12:13:00,
2013-01-24 06:18:00,-33.2,-38.5,31.49,NNW,344,0.0,0.0,74,0.00,,---,0.00,VWS V13.01,2013-01-24 12:18:00,
2013-01-24 06:23:00,-33.1,-38.4,31.49,NNW,344,0.0,0.0,74,0.00,,---,0.00,VWS V13.01,2013-01-24 12:23:00,
2013-01-24 06:28:00,-33.1,-38.4,31.49,NNW,344,0.0,0.0,74,0.00,,---,0.00,VWS V13.01,2013-01-24 12:28:00,
2013-01-24 06:34:00,-33.2,-38.5,31.48,NNW,344,0.0,0.0,74,0.00,,---,0.00,VWS V13.01,2013-01-24 12:34:00,
2013-01-24 06:39:00,-33.7,-39.2,31.48,NNW,344,0.0,0.0,73,0.00,,---,0.00,VWS V13.01,2013-01-24 12:39:00,
2013-01-24 06:44:00,-34.0,-39.5,31.48,NNW,344,0.0,0.0,73,0.00,,---,0.00,VWS V13.01,2013-01-24 12:44:00,
2013-01-24 06:50:00,-34.1,-39.6,31.50,NNW,344,0.0,0.0,73,0.00,,---,0.00,VWS V13.01,2013-01-24 12:50:00,
2013-01-24 06:55:00,-34.2,-39.7,31.50,NNW,344,0.0,0.0,73,0.00,,---,0.00,VWS V13.01,2013-01-24 12:55:00,
2013-01-24 07:00:00,-34.2,-39.7,31.50,NNW,344,0.0,0.0,73,0.00,,---,0.00,VWS V13.01,2013-01-24 13:00:00,
2013-01-24 07:05:00,-34.3,-39.8,31.50,NNW,344,0.0,0.0,73,0.00,,---,0.00,VWS V13.01,2013-01-24 13:05:00,
2013-01-24 07:11:00,-34.4,-39.9,31.50,NNW,344,0.0,0.0,73,0.00,,---,0.00,VWS V13.01,2013-01-24 13:11:00,
2013-01-24 07:16:00,-34.5,-40.0,31.53,NNW,344,0.0,0.0,73,0.00,,---,0.00,VWS V13.01,2013-01-24 13:16:00,
2013-01-24 07:21:00,-34.6,-40.1,31.53,NNW,344,0.0,0.0,73,0.00,,---,0.00,VWS V13.01,2013-01-24 13:21:00,
2013-01-24 07:26:00,-34.6,-40.1,31.53,NNW,344,0.0,0.0,73,0.00,,---,0.00,VWS V13.01,2013-01-24 13:26:00,
2013-01-24 07:31:00,-34.7,-40.2,31.54,NNW,344,0.0,0.0,73,0.00,,---,0.00,VWS V13.01,2013-01-24 13:31:00,
2013-01-24 07:37:00,-34.9,-40.4,31.54,NNW,344,0.0,0.0,73,0.00,,---,0.00,VWS V13.01,2013-01-24 13:37:00,
2013-01-24 07:42:00,-35.1,-40.6,31.54,NNW,344,0.0,0.0,73,0.00,,---,0.00,VWS V13.01,2013-01-24 13:42:00,
2013-01-24 07:47:00,-35.1,-40.6,31.54,NNW,344,0.0,0.0,73,0.00,,---,0.00,VWS V13.01,2013-01-24 13:47:00,
2013-01-24 07:53:00,-35.1,-40.6,31.54,NNW,344,0.0,0.0,73,0.00,,---,0.00,VWS V13.01,2013-01-24 13:53:00,
2013-01-24 07:58:00,-35.1,-40.6,31.54,NNW,344,0.0,0.0,73,0.00,,---,0.00,VWS V13.01,2013-01-24 13:58:00,
2013-01-24 08:03:00,-34.7,-40.2,31.54,NNW,344,0.0,0.0,73,0.00,,---,0.00,VWS V13.01,2013-01-24 14:03:00,
2013-01-24 08:08:00,-34.2,-39.5,31.54,NNW,344,0.0,0.0,74,0.00,,---,0.00,VWS V13.01,2013-01-24 14:08:00,
2013-01-24 08:14:00,-33.7,-39.0,31.54,NNW,344,0.0,0.0,74,0.00,,---,0.00,VWS V13.01,2013-01-24 14:14:00,
2013-01-24 08:19:00,-32.8,-37.9,31.54,NNW,344,0.0,0.0,75,0.00,,---,0.00,VWS V13.01,2013-01-24 14:19:00,
2013-01-24 08:24:00,-31.6,-36.5,31.54,NNW,344,0.0,0.0,76,0.00,,---,0.00,VWS V13.01,2013-01-24 14:24:00,
2013-01-24 08:30:00,-30.5,-35.4,31.54,NNW,344,0.0,0.0,76,0.00,,---,0.00,VWS V13.01,2013-01-24 14:30:00,
2013-01-24 08:35:00,-29.1,-33.8,31.49,NNW,344,0.0,0.0,77,0.00,,---,0.00,VWS V13.01,2013-01-24 14:35:00,
2013-01-24 08:40:00,-27.8,-32.6,31.49,NNW,344,0.0,0.0,77,0.00,,---,0.00,VWS V13.01,2013-01-24 14:40:00,
2013-01-24 08:45:00,-26.5,-31.3,31.49,NNW,344,0.0,0.0,77,0.00,,---,0.00,VWS V13.01,2013-01-24 14:45:00,
2013-01-24 08:51:00,-25.1,-29.7,31.46,NNW,344,0.0,0.0,78,0.00,,---,0.00,VWS V13.01,2013-01-24 14:51:00,
2013-01-24 08:56:00,-23.7,-28.3,31.46,NNW,344,0.0,0.0,78,0.00,,---,0.00,VWS V13.01,2013-01-24 14:56:00,
2013-01-24 09:01:00,-22.7,-27.4,31.42,NNW,344,0.0,0.0,78,0.00,,---,0.00,VWS V13.01,2013-01-24 15:01:00,
2013-01-24 09:06:00,-21.7,-26.4,31.42,NNW,344,0.0,0.0,78,0.00,,---,0.00,VWS V13.01,2013-01-24 15:06:00,
2013-01-24 09:12:00,-20.8,-25.5,31.42,NNW,344,0.0,0.0,78,0.00,,---,0.00,VWS V13.01,2013-01-24 15:12:00,
2013-01-24 09:17:00,-19.4,-23.9,31.39,NNW,344,0.0,0.0,79,0.00,,---,0.00,VWS V13.01,2013-01-24 15:17:00,
2013-01-24 09:22:00,-18.0,-22.8,31.39,NNW,344,0.0,2.0,78,0.00,,---,0.00,VWS V13.01,2013-01-24 15:22:00,
2013-01-24 09:28:00,-17.0,-21.8,31.39,NNW,344,1.0,2.0,78,0.00,,---,0.00,VWS V13.01,2013-01-24 15:28:00,
2013-01-24 09:33:00,-16.3,-21.4,31.36,NNE,12,3.0,4.0,77,0.00,,---,0.00,VWS V13.01,2013-01-24 15:33:00,
2013-01-24 09:38:00,-16.3,-21.4,31.36,NNE,14,2.0,4.0,77,0.00,,---,0.00,VWS V13.01,2013-01-24 15:38:00,
2013-01-24 09:43:00,-16.1,-21.2,31.36,NNE,15,2.0,4.0,77,0.00,,---,0.00,VWS V13.01,2013-01-24 15:43:00,
2013-01-24 09:49:00,-15.6,-20.7,31.35,NNE,15,2.0,2.0,77,0.00,,---,0.00,VWS V13.01,2013-01-24 15:49:00,
2013-01-24 09:54:00,-15.2,-20.0,31.35,NNE,15,0.0,2.0,78,0.00,,---,0.00,VWS V13.01,2013-01-24 15:54:00,
2013-01-24 09:59:00,-14.5,-19.4,31.35,NNE,15,0.0,2.0,78,0.00,,---,0.00,VWS V13.01,2013-01-24 15:59:00,
2013-01-24 10:04:00,-14.0,-18.9,31.32,NNE,32,2.0,2.0,78,0.00,,---,0.00,VWS V13.01,2013-01-24 16:04:00,
2013-01-24 10:10:00,-13.5,-18.6,31.32,NNE,32,1.0,3.0,77,0.00,,---,0.00,VWS V13.01,2013-01-24 16:10:00,
2013-01-24 10:15:00,-12.5,-17.4,31.32,NNE,32,0.0,3.0,78,0.00,,---,0.00,VWS V13.01,2013-01-24 16:15:00,
2013-01-24 10:20:00,-11.2,-16.4,31.33,SE,132,1.0,4.0,77,0.00,,---,0.00,VWS V13.01,2013-01-24 16:20:00,
2013-01-24 10:25:00,-10.1,-15.3,31.33,ESE,121,3.0,4.0,77,0.00,,---,0.00,VWS V13.01,2013-01-24 16:25:00,
2013-01-24 10:31:00,-9.8,-15.3,31.28,ESE,122,2.0,5.0,76,0.00,,---,0.00,VWS V13.01,2013-01-24 16:31:00,
2013-01-24 10:36:00,-9.6,-15.1,31.28,ESE,122,1.0,2.0,76,0.00,,---,0.00,VWS V13.01,2013-01-24 16:36:00,
2013-01-24 10:41:00,-9.3,-14.5,31.28,ESE,122,1.0,4.0,77,0.00,,---,0.00,VWS V13.01,2013-01-24 16:41:00,
2013-01-24 10:46:00,-8.9,-14.1,31.28,ESE,122,1.0,4.0,77,0.00,,---,0.00,VWS V13.01,2013-01-24 16:46:00,
2013-01-24 10:51:00,-8.4,-13.7,31.28,ESE,123,3.0,4.0,77,0.00,,---,0.00,VWS V13.01,2013-01-24 16:51:00,
2013-01-24 10:57:00,-8.0,-13.3,31.28,SSE,161,3.0,4.0,77,0.00,,---,0.00,VWS V13.01,2013-01-24 16:57:00,
2013-01-24 11:02:00,-7.6,-12.6,31.25,SSE,162,1.0,2.0,78,0.00,,---,0.00,VWS V13.01,2013-01-24 17:02:00,
2013-01-24 11:07:00,-7.1,-12.1,31.25,South,179,1.0,5.0,78,0.00,,---,0.00,VWS V13.01,2013-01-24 17:07:00,
2013-01-24 11:13:00,-6.4,-11.7,31.25,SSW,196,2.0,5.0,77,0.00,,---,0.00,VWS V13.01,2013-01-24 17:13:00,
2013-01-24 11:18:00,-5.8,-11.4,31.25,SSW,202,1.0,3.0,76,0.00,,---,0.00,VWS V13.01,2013-01-24 17:18:00,
2013-01-24 11:23:00,-5.4,-11.3,31.25,SW,221,5.0,7.0,75,0.00,,---,0.00,VWS V13.01,2013-01-24 17:23:00,
2013-01-24 11:28:00,-5.3,-11.2,31.25,South,169,2.0,7.0,75,0.00,,---,0.00,VWS V13.01,2013-01-24 17:28:00,
2013-01-24 11:34:00,-5.2,-11.1,31.22,SW,217,1.0,6.0,75,0.00,,---,0.00,VWS V13.01,2013-01-24 17:34:00,
2013-01-24 11:39:00,-4.8,-10.4,31.22,SW,221,3.0,10.0,76,0.00,,---,0.00,VWS V13.01,2013-01-24 17:39:00,
2013-01-24 11:44:00,-4.5,-10.1,31.22,SW,216,5.0,10.0,76,0.00,,---,0.00,VWS V13.01,2013-01-24 17:44:00,
2013-01-24 11:49:00,-4.1,-10.3,31.22,SSW,208,5.0,11.0,74,0.00,,---,0.00,VWS V13.01,2013-01-24 17:49:00,
2013-01-24 11:55:00,-3.9,-10.4,31.22,South,175,2.0,11.0,73,0.00,,---,0.00,VWS V13.01,2013-01-24 17:55:00,
2013-01-24 12:00:00,-3.4,-9.3,31.22,South,184,4.0,11.0,75,0.00,,---,0.00,VWS V13.01,2013-01-24 18:00:00,
2013-01-24 12:05:00,-3.0,-8.7,31.20,SW,223,1.0,4.0,76,0.00,,---,0.00,VWS V13.01,2013-01-24 18:05:00,
2013-01-24 12:10:00,-2.5,-8.7,31.20,SW,220,7.0,9.0,74,0.00,,---,0.00,VWS V13.01,2013-01-24 18:10:00,
2013-01-24 12:16:00,-2.9,-9.4,31.21,SSW,209,2.0,10.0,73,0.00,,---,0.00,VWS V13.01,2013-01-24 18:16:00,
2013-01-24 12:21:00,-2.4,-8.4,31.21,WSW,242,5.0,10.0,75,0.00,,---,0.00,VWS V13.01,2013-01-24 18:21:00,
2013-01-24 12:26:00,-2.0,-8.2,31.21,SSW,205,10.0,10.0,74,0.00,,---,0.00,VWS V13.01,2013-01-24 18:26:00,
2013-01-24 12:31:00,-1.4,-7.7,31.20,SSW,210,2.0,10.0,74,0.00,,---,0.00,VWS V13.01,2013-01-24 18:31:00,
2013-01-24 12:37:00,-1.2,-7.5,31.20,South,176,3.0,6.0,74,0.00,,---,0.00,VWS V13.01,2013-01-24 18:37:00,
2013-01-24 12:42:00,-1.3,-7.8,31.20,SW,236,4.0,10.0,73,0.00,,---,0.00,VWS V13.01,2013-01-24 18:42:00,
2013-01-24 12:47:00,-1.2,-7.5,31.17,SSW,207,1.0,4.0,74,0.00,,---,0.00,VWS V13.01,2013-01-24 18:47:00,
2013-01-24 12:52:00,-1.4,-7.7,31.17,South,182,0.0,5.0,74,0.00,,---,0.00,VWS V13.01,2013-01-24 18:52:00,
2013-01-24 12:57:00,-1.7,-8.2,31.17,SW,217,1.0,6.0,73,0.00,,---,0.00,VWS V13.01,2013-01-24 18:57:00,
2013-01-24 13:03:00,-2.0,-8.0,31.18,SSW,213,3.0,5.0,75,0.00,,---,0.00,VWS V13.01,2013-01-24 19:03:00,
2013-01-24 13:08:00,-2.0,-8.0,31.18,SW,224,4.0,7.0,75,0.00,,---,0.00,VWS V13.01,2013-01-24 19:08:00,
2013-01-24 13:13:00,-2.1,-8.1,31.18,SW,231,2.0,7.0,75,0.00,,---,0.00,VWS V13.01,2013-01-24 19:13:00,
2013-01-24 13:18:00,-2.1,-8.1,31.17,South,171,4.0,6.0,75,0.00,,---,0.00,VWS V13.01,2013-01-24 19:18:00,
2013-01-24 13:24:00,-2.3,-8.3,31.17,WSW,245,5.0,9.0,75,0.00,,---,0.00,VWS V13.01,2013-01-24 19:24:00,
2013-01-24 13:29:00,-2.3,-7.7,31.17,SW,232,5.0,9.0,77,0.00,,---,0.00,VWS V13.01,2013-01-24 19:29:00,
2013-01-24 13:34:00,-2.1,-7.5,31.17,SSW,212,1.0,3.0,77,0.00,,---,0.00,VWS V13.01,2013-01-24 19:34:00,
2013-01-24 13:39:00,-1.8,-7.2,31.17,SSW,208,5.0,8.0,77,0.00,,---,0.00,VWS V13.01,2013-01-24 19:39:00,
2013-01-24 13:45:00,-1.7,-7.1,31.17,South,173,5.0,8.0,77,0.00,,---,0.00,VWS V13.01,2013-01-24 19:45:00,
2013-01-24 13:50:00,-1.5,-6.7,31.17,SSW,209,1.0,5.0,78,0.00,,---,0.00,VWS V13.01,2013-01-24 19:50:00,
2013-01-24 13:55:00,-1.4,-6.6,31.17,SW,216,2.0,6.0,78,0.00,,---,0.00,VWS V13.01,2013-01-24 19:55:00,
2013-01-24 14:00:00,-1.5,-6.7,31.17,WSW,244,5.0,6.0,78,0.00,,---,0.00,VWS V13.01,2013-01-24 20:00:00,
2013-01-24 14:06:00,-1.7,-6.9,31.15,South,182,1.0,4.0,78,0.00,,---,0.00,VWS V13.01,2013-01-24 20:06:00,
2013-01-24 14:11:00,-1.8,-7.0,31.15,South,171,2.0,6.0,78,0.00,,---,0.00,VWS V13.01,2013-01-24 20:11:00,
2013-01-24 14:16:00,-1.8,-6.7,31.15,South,171,1.0,6.0,79,0.00,,---,0.00,VWS V13.01,2013-01-24 20:16:00,
2013-01-24 14:22:00,-1.7,-6.6,31.15,South,186,0.0,7.0,79,0.00,,---,0.00,VWS V13.01,2013-01-24 20:22:00,
2013-01-24 14:27:00,-1.7,-6.6,31.15,SSW,197,6.0,7.0,79,0.00,,---,0.00,VWS V13.01,2013-01-24 20:27:00,
2013-01-24 14:32:00,-1.8,-6.7,31.14,South,175,1.0,5.0,79,0.00,,---,0.00,VWS V13.01,2013-01-24 20:32:00,
2013-01-24 14:37:00,-1.8,-6.4,31.14,South,174,1.0,6.0,80,0.00,,---,0.00,VWS V13.01,2013-01-24 20:37:00,
2013-01-24 14:43:00,-1.6,-6.0,31.14,South,187,1.0,7.0,81,0.00,,---,0.00,VWS V13.01,2013-01-24 20:43:00,
2013-01-24 14:48:00,-1.6,-6.2,31.13,SSW,195,3.0,7.0,80,0.00,,---,0.00,VWS V13.01,2013-01-24 20:48:00,
2013-01-24 14:54:00,-1.8,-6.4,31.13,South,184,5.0,8.0,80,0.00,,---,0.00,VWS V13.01,2013-01-24 20:54:00,
2013-01-24 14:59:00,-1.8,-6.2,31.13,SW,215,3.0,8.0,81,0.00,,---,0.00,VWS V13.01,2013-01-24 20:59:00,
2013-01-24 15:04:00,-1.8,-6.2,31.11,South,170,0.0,5.0,81,0.00,,---,0.00,VWS V13.01,2013-01-24 21:04:00,
2013-01-24 15:09:00,-1.7,-6.1,31.11,South,180,5.0,9.0,81,0.00,,---,0.00,VWS V13.01,2013-01-24 21:09:00,
2013-01-24 15:15:00,-1.7,-6.1,31.11,South,189,6.0,9.0,81,0.00,,---,0.00,VWS V13.01,2013-01-24 21:15:00,
2013-01-24 15:20:00,-1.7,-6.1,31.12,SE,126,5.0,7.0,81,0.00,,---,0.00,VWS V13.01,2013-01-24 21:20:00,
2013-01-24 15:25:00,-1.7,-6.1,31.12,SSW,192,1.0,7.0,81,0.00,,---,0.00,VWS V13.01,2013-01-24 21:25:00,
2013-01-24 15:30:00,-1.6,-6.0,31.12,South,190,2.0,9.0,81,0.00,,---,0.00,VWS V13.01,2013-01-24 21:30:00,
2013-01-24 15:35:00,-1.7,-6.1,31.12,SSW,194,0.0,9.0,81,0.00,,---,0.00,VWS V13.01,2013-01-24 21:35:00,
2013-01-24 15:40:00,-1.7,-6.1,31.12,SSW,205,0.0,9.0,81,0.00,,---,0.00,VWS V13.01,2013-01-24 21:40:00,
2013-01-24 15:45:00,-1.6,-6.0,31.12,South,175,2.0,10.0,81,0.00,,---,0.00,VWS V13.01,2013-01-24 21:45:00,
2013-01-24 15:51:00,-1.6,-6.0,31.12,SSE,166,1.0,5.0,81,0.00,,---,0.00,VWS V13.01,2013-01-24 21:51:00,
2013-01-24 15:56:00,-1.6,-6.0,31.12,South,182,2.0,5.0,81,0.00,,---,0.00,VWS V13.01,2013-01-24 21:56:00,
2013-01-24 16:01:00,-1.6,-6.0,31.10,South,171,0.0,6.0,81,0.00,,---,0.00,VWS V13.01,2013-01-24 22:01:00,
2013-01-24 16:06:00,-1.6,-5.7,31.10,South,171,2.0,3.0,82,0.00,,---,0.00,VWS V13.01,2013-01-24 22:06:00,
2013-01-24 16:11:00,-1.5,-5.7,31.10,South,173,4.0,5.0,82,0.00,,---,0.00,VWS V13.01,2013-01-24 22:11:00,
2013-01-24 16:16:00,-1.5,-5.7,31.14,SSE,158,4.0,7.0,82,0.00,,---,0.00,VWS V13.01,2013-01-24 22:16:00,
2013-01-24 16:22:00,-1.6,-5.7,31.14,South,185,2.0,5.0,82,0.00,,---,0.00,VWS V13.01,2013-01-24 22:22:00,
2013-01-24 16:27:00,-1.6,-5.7,31.14,South,184,2.0,5.0,82,0.00,,---,0.00,VWS V13.01,2013-01-24 22:27:00,
2013-01-24 16:32:00,-1.6,-5.7,31.14,South,178,2.0,4.0,82,0.00,,---,0.00,VWS V13.01,2013-01-24 22:32:00,
2013-01-24 16:37:00,-1.5,-5.4,31.14,South,178,0.0,4.0,83,0.00,,---,0.00,VWS V13.01,2013-01-24 22:37:00,
2013-01-24 16:43:00,-1.5,-5.4,31.14,South,182,2.0,4.0,83,0.00,,---,0.00,VWS V13.01,2013-01-24 22:43:00,
2013-01-24 16:48:00,-1.5,-5.4,31.11,South,182,0.0,3.0,83,0.00,,---,0.00,VWS V13.01,2013-01-24 22:48:00,
2013-01-24 16:53:00,-1.4,-5.3,31.11,South,185,3.0,5.0,83,0.00,,---,0.00,VWS V13.01,2013-01-24 22:53:00,
2013-01-24 16:58:00,-1.4,-5.3,31.11,South,172,1.0,7.0,83,0.00,,---,0.00,VWS V13.01,2013-01-24 22:58:00,
2013-01-24 17:03:00,-1.4,-5.3,31.10,South,185,1.0,3.0,83,0.00,,---,0.00,VWS V13.01,2013-01-24 23:03:00,
2013-01-24 17:09:00,-1.4,-5.1,31.10,South,188,1.0,4.0,84,0.00,,---,0.00,VWS V13.01,2013-01-24 23:09:00,
2013-01-24 17:14:00,-1.4,-5.1,31.10,South,188,0.0,4.0,84,0.00,,---,0.00,VWS V13.01,2013-01-24 23:14:00,
2013-01-24 17:19:00,-1.4,-5.1,31.12,South,187,0.0,4.0,84,0.00,,---,0.00,VWS V13.01,2013-01-24 23:19:00,
2013-01-24 17:25:00,-1.4,-5.1,31.12,South,178,2.0,6.0,84,0.00,,---,0.00,VWS V13.01,2013-01-24 23:25:00,
2013-01-24 17:30:00,-1.3,-4.9,31.12,South,178,4.0,6.0,84,0.00,,---,0.00,VWS V13.01,2013-01-24 23:30:00,
2013-01-24 17:35:00,-1.3,-4.9,31.12,SSE,164,2.0,6.0,84,0.00,,---,0.00,VWS V13.01,2013-01-24 23:35:00,
2013-01-24 17:40:00,-1.2,-4.8,31.12,SSE,165,0.0,6.0,84,0.00,,---,0.00,VWS V13.01,2013-01-24 23:40:00,
2013-01-24 17:46:00,-1.2,-4.8,31.12,SSE,165,0.0,6.0,84,0.00,,---,0.00,VWS V13.01,2013-01-24 23:46:00,
2013-01-24 17:51:00,-1.1,-4.8,31.12,SSE,165,1.0,3.0,84,0.00,,---,0.00,VWS V13.01,2013-01-24 23:51:00,
2013-01-24 17:56:00,-1.1,-4.8,31.12,SSE,165,0.0,3.0,84,0.00,,---,0.00,VWS V13.01,2013-01-24 23:56:00,
2013-01-24 18:01:00,-1.0,-4.7,31.12,South,169,0.0,5.0,84,0.00,,---,0.00,VWS V13.01,2013-01-25 00:01:00,
2013-01-24 18:07:00,-1.0,-4.7,31.12,South,176,1.0,5.0,84,0.00,,---,0.00,VWS V13.01,2013-01-25 00:07:00,
2013-01-24 18:12:00,-1.0,-4.7,31.12,South,178,2.0,5.0,84,0.00,,---,0.00,VWS V13.01,2013-01-25 00:12:00,
2013-01-24 18:17:00,-0.9,-4.3,31.10,SW,215,3.0,4.0,85,0.00,,---,0.00,VWS V13.01,2013-01-25 00:17:00,
2013-01-24 18:22:00,-0.9,-4.3,31.10,SSW,210,2.0,4.0,85,0.00,,---,0.00,VWS V13.01,2013-01-25 00:22:00,
2013-01-24 18:28:00,-0.8,-4.2,31.10,South,178,1.0,6.0,85,0.00,,---,0.00,VWS V13.01,2013-01-25 00:28:00,
2013-01-24 18:33:00,-0.7,-4.1,31.10,South,178,0.0,2.0,85,0.00,,---,0.00,VWS V13.01,2013-01-25 00:33:00,
2013-01-24 18:38:00,-0.7,-4.1,31.10,SSW,212,1.0,6.0,85,0.00,,---,0.00,VWS V13.01,2013-01-25 00:38:00,
2013-01-24 18:43:00,-0.6,-4.0,31.10,South,188,2.0,6.0,85,0.00,,---,0.00,VWS V13.01,2013-01-25 00:43:00,
2013-01-24 18:49:00,-0.6,-4.0,31.08,SSW,209,2.0,5.0,85,0.00,,---,0.00,VWS V13.01,2013-01-25 00:49:00,
2013-01-24 18:54:00,-0.5,-3.9,31.08,South,190,2.0,9.0,85,0.00,,---,0.00,VWS V13.01,2013-01-25 00:54:00,
2013-01-24 18:59:00,-0.5,-3.9,31.08,SSW,198,1.0,9.0,85,0.00,,---,0.00,VWS V13.01,2013-01-25 00:59:00,
2013-01-24 19:04:00,-0.4,-3.8,31.08,South,178,0.0,8.0,85,0.00,,---,0.00,VWS V13.01,2013-01-25 01:04:00,
2013-01-24 19:10:00,-0.3,-3.7,31.08,SSW,196,1.0,8.0,85,0.00,,---,0.00,VWS V13.01,2013-01-25 01:10:00,
2013-01-24 19:15:00,-0.3,-3.7,31.08,SSW,194,2.0,8.0,85,0.00,,---,0.00,VWS V13.01,2013-01-25 01:15:00,
2013-01-24 19:20:00,-0.1,-3.5,31.07,SSW,206,1.0,10.0,85,0.00,,---,0.00,VWS V13.01,2013-01-25 01:20:00,
2013-01-24 19:25:00,-0.1,-3.2,31.07,SSW,210,3.0,10.0,86,0.00,,---,0.00,VWS V13.01,2013-01-25 01:25:00,
2013-01-24 19:31:00,-0.1,-3.2,31.06,South,187,1.0,10.0,86,0.00,,---,0.00,VWS V13.01,2013-01-25 01:31:00,
2013-01-24 19:36:00,0.1,-3.3,31.06,SSW,197,4.0,4.0,85,0.00,,---,0.00,VWS V13.01,2013-01-25 01:36:00,
2013-01-24 19:41:00,0.1,-3.3,31.06,SSW,203,5.0,5.0,85,0.00,,---,0.00,VWS V13.01,2013-01-25 01:41:00,
2013-01-24 19:46:00,0.2,-3.2,31.05,SSW,203,2.0,5.0,85,0.00,,---,0.00,VWS V13.01,2013-01-25 01:46:00,
2013-01-24 19:52:00,0.3,-3.1,31.05,SSW,192,3.0,5.0,85,0.00,,---,0.00,VWS V13.01,2013-01-25 01:52:00,
2013-01-24 19:57:00,0.3,-3.1,31.05,SSW,192,0.0,5.0,85,0.00,,---,0.00,VWS V13.01,2013-01-25 01:57:00,
2013-01-24 20:02:00,0.4,-3.0,31.03,South,184,2.0,5.0,85,0.00,,---,0.00,VWS V13.01,2013-01-25 02:02:00,
2013-01-24 20:08:00,0.5,-2.9,31.03,South,180,0.0,6.0,85,0.00,,---,0.00,VWS V13.01,2013-01-25 02:08:00,
2013-01-24 20:13:00,0.5,-2.9,31.03,South,171,4.0,6.0,85,0.00,,---,0.00,VWS V13.01,2013-01-25 02:13:00,
2013-01-24 20:18:00,0.6,-2.8,30.91,SSE,167,2.0,3.0,85,0.00,,---,0.00,VWS V13.01,2013-01-25 02:18:00,
2013-01-24 20:23:00,0.7,-2.7,30.91,South,187,1.0,10.0,85,0.00,,---,0.00,VWS V13.01,2013-01-25 02:23:00,
2013-01-24 20:29:00,0.8,-2.6,30.91,South,183,1.0,10.0,85,0.00,,---,0.00,VWS V13.01,2013-01-25 02:29:00,
2013-01-24 20:34:00,0.9,-2.5,30.89,SSE,167,2.0,6.0,85,0.00,,---,0.00,VWS V13.01,2013-01-25 02:34:00,
2013-01-24 20:39:00,1.0,-2.5,30.89,South,171,1.0,10.0,85,0.00,,---,0.00,VWS V13.01,2013-01-25 02:39:00,
2013-01-24 20:44:00,1.1,-2.3,30.89,South,186,12.0,13.0,85,0.00,,---,0.00,VWS V13.01,2013-01-25 02:44:00,
2013-01-24 20:50:00,1.3,-2.2,30.87,SSW,205,2.0,8.0,85,0.00,,---,0.00,VWS V13.01,2013-01-25 02:50:00,
2013-01-24 20:55:00,1.4,-2.0,30.87,SSE,158,3.0,10.0,85,0.00,,---,0.00,VWS V13.01,2013-01-25 02:55:00,
2013-01-24 21:00:00,1.5,-2.0,30.87,South,186,5.0,10.0,85,0.00,,---,0.00,VWS V13.01,2013-01-25 03:00:00,
2013-01-24 21:05:00,1.6,-1.9,30.84,SSE,167,7.0,7.0,85,0.00,,---,0.00,VWS V13.01,2013-01-25 03:05:00,
2013-01-24 21:11:00,1.7,-1.8,30.84,South,169,0.0,11.0,85,0.00,,---,0.00,VWS V13.01,2013-01-25 03:11:00,
2013-01-24 21:16:00,1.8,-1.7,30.76,SSW,200,0.0,11.0,85,0.00,,---,0.00,VWS V13.01,2013-01-25 03:16:00,
2013-01-24 21:21:00,1.9,-1.3,30.76,South,188,0.0,4.0,86,0.00,,---,0.00,VWS V13.01,2013-01-25 03:21:00,
2013-01-24 21:26:00,2.0,-1.2,30.76,South,183,0.0,8.0,86,0.00,,---,0.00,VWS V13.01,2013-01-25 03:26:00,
2013-01-24 21:32:00,2.2,-1.0,30.76,SSE,162,4.0,8.0,86,0.00,,---,0.00,VWS V13.01,2013-01-25 03:32:00,
2013-01-24 21:37:00,2.3,-0.9,30.76,South,173,0.0,6.0,86,0.00,,---,0.00,VWS V13.01,2013-01-25 03:37:00,
2013-01-24 21:42:00,2.4,-0.8,30.76,SSE,163,2.0,7.0,86,0.00,,---,0.00,VWS V13.01,2013-01-25 03:42:00,
2013-01-24 21:47:00,2.5,-0.7,30.73,SSW,192,3.0,4.0,86,0.00,,---,0.00,VWS V13.01,2013-01-25 03:47:00,
2013-01-24 21:52:00,2.6,-0.6,30.73,South,184,3.0,10.0,86,0.00,,---,0.00,VWS V13.01,2013-01-25 03:52:00,
2013-01-24 21:58:00,2.7,-0.5,30.73,South,174,1.0,12.0,86,0.00,,---,0.00,VWS V13.01,2013-01-25 03:58:00,
2013-01-24 22:03:00,2.8,-0.4,30.72,South,178,2.0,6.0,86,0.00,,---,0.00,VWS V13.01,2013-01-25 04:03:00,
2013-01-24 22:08:00,2.8,-0.4,30.72,SSE,153,4.0,13.0,86,0.00,,---,0.00,VWS V13.01,2013-01-25 04:08:00,
2013-01-24 22:13:00,2.9,-0.3,30.72,SSE,163,2.0,13.0,86,0.00,,---,0.00,VWS V13.01,2013-01-25 04:13:00,
2013-01-24 22:19:00,2.9,-0.6,30.67,South,184,2.0,10.0,85,0.00,,---,0.00,VWS V13.01,2013-01-25 04:19:00,
2013-01-24 22:24:00,3.0,-0.5,30.67,South,184,3.0,11.0,85,0.00,,---,0.00,VWS V13.01,2013-01-25 04:24:00,
2013-01-24 22:29:00,3.1,-0.4,30.67,SSE,168,6.0,13.0,85,0.00,,---,0.00,VWS V13.01,2013-01-25 04:29:00,
2013-01-24 22:34:00,3.2,-0.3,30.67,SE,136,3.0,7.0,85,0.00,,---,0.00,VWS V13.01,2013-01-25 04:34:00,
2013-01-24 22:40:00,3.2,-0.3,30.67,SSW,192,0.0,10.0,85,0.00,,---,0.00,VWS V13.01,2013-01-25 04:40:00,
2013-01-24 22:45:00,3.3,-0.2,30.67,SSW,205,2.0,15.0,85,0.00,,---,0.00,VWS V13.01,2013-01-25 04:45:00,
2013-01-24 22:50:00,3.4,0.2,30.65,SSE,161,4.0,7.0,86,0.00,,---,0.00,VWS V13.01,2013-01-25 04:50:00,
2013-01-24 22:55:00,3.5,0.3,30.65,SSE,155,3.0,10.0,86,0.00,,---,0.00,VWS V13.01,2013-01-25 04:55:00,
2013-01-24 23:00:00,3.5,0.3,30.65,SSW,206,1.0,10.0,86,0.00,,---,0.00,VWS V13.01,2013-01-25 05:00:00,
2013-01-24 23:02:00,3.6,0.4,30.63,SSW,202,2.0,10.0,86,0.00,,---,0.00,VWS V13.01,2013-01-25 05:02:00,
2013-01-24 23:07:00,3.7,0.5,30.63,SSE,168,4.0,10.0,86,0.00,,---,0.00,VWS V13.01,2013-01-25 05:07:00,
2013-01-24 23:12:00,3.9,0.6,30.63,SSW,192,6.0,15.0,86,0.00,,---,0.00,VWS V13.01,2013-01-25 05:12:00,
2013-01-24 23:17:00,4.1,0.9,30.59,South,170,4.0,6.0,86,0.00,,---,0.00,VWS V13.01,2013-01-25 05:17:00,
2013-01-24 23:23:00,4.1,0.9,30.59,SSE,167,3.0,12.0,86,0.00,,---,0.00,VWS V13.01,2013-01-25 05:23:00,
2013-01-24 23:28:00,4.2,0.9,30.59,ESE,103,11.0,12.0,86,0.00,,---,0.00,VWS V13.01,2013-01-25 05:28:00,
2013-01-24 23:33:00,4.4,1.1,30.57,South,173,4.0,9.0,86,0.00,,---,0.00,VWS V13.01,2013-01-25 05:33:00,
2013-01-24 23:39:00,4.5,1.2,30.57,SSW,207,6.0,11.0,86,0.00,,---,0.00,VWS V13.01,2013-01-25 05:39:00,
2013-01-24 23:44:00,4.7,1.4,30.57,South,190,5.0,15.0,86,0.00,,---,0.00,VWS V13.01,2013-01-25 05:44:00,
2013-01-24 23:49:00,4.8,1.5,30.54,SSE,166,2.0,10.0,86,0.00,,---,0.00,VWS V13.01,2013-01-25 05:49:00,
2013-01-24 23:54:00,4.9,1.6,30.54,SSE,149,3.0,13.0,86,0.00,,---,0.00,VWS V13.01,2013-01-25 05:54:00,